FW1075 Weather Reports


time (UTC)temp
C
wind
direction
speed
KPH
gust
KPH
rain 1hr
cm
rain 24hr
cm
rain mn
cm
humidity
%
barometer
mb
20260504035121 8 180 0.0 0.0 0.00 0.00 0.00 64 1010.7
20260504034121 8 225 0.0 4.8 0.00 0.00 0.00 63 1010.7
20260504033121 8 218 0.0 3.2 0.00 0.00 0.00 62 1010.6
20260504032142 8 180 0.0 0.0 0.00 0.00 0.00 61 1010.6
20260504031121 8 258 0.0 3.2 0.00 0.00 0.00 60 1010.5
20260504030121 8 225 0.0 0.0 0.00 0.00 0.00 59 1010.5
20260504025121 8 180 0.0 0.0 0.00 0.00 0.00 59 1010.5
20260504024122 8 241 1.6 12.9 0.00 0.00 0.00 58 1010.6
20260504023121 8 212 0.0 4.8 0.00 0.00 0.00 60 1010.6
20260504022122 8 203 0.0 0.0 0.00 0.00 0.00 59 1010.6
20260504021122 8 180 0.0 0.0 0.00 0.00 0.00 59 1010.6
20260504020122 8 203 0.0 0.0 0.00 0.00 0.00 56 1010.6
20260504015123 9 203 0.0 0.0 0.00 0.00 0.00 55 1010.5
20260504014122 10 338 0.0 0.0 0.00 0.00 0.00 53 1010.4
20260504013124 11 23 0.0 0.0 0.00 0.00 0.00 48 1010.2
20260504012124 11 90 0.0 0.0 0.00 0.00 0.00 48 1010.1
20260504011124 11 203 0.0 0.0 0.00 0.00 0.00 48 1010.0
20260504010121 11 270 0.0 0.0 0.00 0.00 0.00 47 1009.8
20260504005121 11 287 0.0 3.2 0.00 0.00 0.00 45 1009.8
20260504004121 12 291 1.6 3.2 0.00 0.00 0.00 44 1009.6
20260504003122 12 260 0.0 4.8 0.00 0.00 0.00 43 1009.5
20260504002121 13 283 1.6 4.8 0.00 0.00 0.00 41 1009.2
20260504001125 13 284 3.2 6.4 0.00 0.00 0.00 40 1009.2
20260504000145 13 293 4.8 8.0 0.00 0.00 0.00 39 1009.2
20260503235124 13 296 4.8 11.3 0.00 0.00 0.00 38 1009.0
20260503234121 14 302 6.4 12.9 0.00 0.00 0.00 37 1008.8
20260503233121 14 310 8.0 12.9 0.00 0.00 0.00 37 1008.7
20260503232121 14 315 8.0 16.1 0.00 0.00 0.00 36 1008.7
20260503231121 15 305 8.0 17.7 0.00 0.00 0.00 36 1008.6
20260503230121 15 317 8.0 17.7 0.00 0.00 0.00 36 1008.6
20260503225127 15 316 9.7 16.1 0.00 0.00 0.00 35 1008.6
20260503224126 15 305 11.3 19.3 0.00 0.00 0.00 34 1008.5
20260503223124 15 291 8.0 20.9 0.00 0.00 0.00 34 1008.2
20260503222123 15 293 9.7 19.3 0.00 0.00 0.00 34 1008.5
20260503221122 15 302 12.9 20.9 0.00 0.00 0.00 34 1008.4
20260503220123 15 44 11.3 17.7 0.00 0.00 0.00 33 1008.4
20260503215122 15 295 11.3 25.7 0.00 0.00 0.00 34 1008.5
20260503214123 16 299 12.9 27.4 0.00 0.00 0.00 34 1008.5
20260503213125 16 328 11.3 25.7 0.00 0.00 0.00 34 1008.2
20260503212121 16 277 11.3 30.6 0.00 0.00 0.00 33 1008.1
20260503211143 17 285 9.7 27.4 0.00 0.00 0.00 33 1008.1
20260503210121 17 289 11.3 20.9 0.00 0.00 0.00 33 1008.1
20260503205121 17 340 12.9 29.0 0.00 0.00 0.00 33 1008.2
20260503204122 17 316 11.3 22.5 0.00 0.00 0.00 32 1008.1
20260503203121 17 284 11.3 22.5 0.00 0.00 0.00 32 1008.2
20260503202121 17 292 11.3 22.5 0.00 0.00 0.00 33 1008.4
20260503201121 16 300 16.1 29.0 0.00 0.00 0.00 34 1008.4
20260503200142 16 322 11.3 19.3 0.00 0.00 0.00 34 1008.2
20260503195142 17 291 14.5 29.0 0.00 0.00 0.00 34 1008.2
20260503194122 17 295 9.7 19.3 0.00 0.00 0.00 34 1008.5
20260503193121 17 267 9.7 19.3 0.00 0.00 0.00 35 1008.6
20260503192123 16 288 14.5 29.0 0.00 0.00 0.00 35 1008.8
20260503191121 16 295 11.3 19.3 0.00 0.00 0.00 36 1009.0
20260503190121 16 298 11.3 19.3 0.00 0.00 0.00 37 1009.0
20260503185126 15 299 9.7 19.3 0.00 0.00 0.00 38 1009.2
20260503185121 16 300 9.7 19.3 0.00 0.00 0.00 37 1009.2
20260503184123 15 307 11.3 20.9 0.00 0.00 0.00 40 1009.2
20260503183143 15 296 11.3 19.3 0.00 0.00 0.00 39 1009.4
20260503182122 15 328 11.3 20.9 0.00 0.00 0.00 39 1009.2
20260503181121 15 321 11.3 17.7 0.00 0.00 0.00 40 1009.1
20260503180122 13 289 12.9 24.1 0.00 0.00 0.00 41 1009.1
20260503175143 13 290 12.9 20.9 0.00 0.00 0.00 40 1009.1
20260503174123 14 333 11.3 20.9 0.00 0.00 0.00 40 1009.1
20260503173144 15 315 11.3 27.4 0.00 0.00 0.00 40 1009.1
20260503172122 14 315 9.7 22.5 0.00 0.00 0.00 39 1009.4
20260503171143 13 279 12.9 20.9 0.00 0.00 0.00 40 1009.2
20260503170121 14 305 12.9 25.7 0.00 0.00 0.00 39 1009.2
20260503160122 12 312 12.9 20.9 0.00 0.00 0.00 43 1009.4
20260503150125 10 307 12.9 25.7 0.00 0.00 0.00 48 1009.7
20260503140122 11 324 11.3 17.7 0.00 0.00 0.00 53 1009.8
20260503131121 10 306 9.7 16.1 0.00 0.00 0.00 56 1009.8
20260503130122 10 309 8.0 14.5 0.00 0.00 0.00 57 1009.8
20260503120121 9 315 8.0 14.5 0.00 0.00 0.00 60 1009.7
20260503110122 7 303 8.0 16.1 0.00 0.00 0.00 66 1009.2
20260503100143 6 26 4.8 8.0 0.00 0.00 0.00 69 1008.4
20260503090121 7 23 4.8 11.3 0.00 0.00 0.00 65 1008.2
20260503081121 7 345 6.4 11.3 0.00 0.00 0.00 63 1008.4
20260503080121 7 323 6.4 11.3 0.00 0.00 0.00 63 1008.4
20260503072121 8 357 4.8 9.7 0.00 0.00 0.00 61 1008.2
20260503071121 8 282 6.4 12.9 0.00 0.00 0.00 60 1008.2
20260503070121 8 331 6.4 14.5 0.00 0.00 0.00 60 1008.2
20260503060121 9 6 6.4 12.9 0.00 0.00 0.00 58 1008.6
20260503055122 10 38 8.0 17.7 0.00 0.00 0.00 57 1008.5
20260503054122 10 2 6.4 12.9 0.00 0.00 0.00 58 1008.6
20260503053143 10 5 6.4 16.1 0.00 0.00 0.00 59 1008.7
20260503052121 10 328 4.8 8.0 0.00 0.00 0.00 59 1008.8
20260503051122 10 76 6.4 14.5 0.00 0.00 0.00 58 1009.0
20260503050121 10 19 6.4 14.5 0.00 0.00 0.00 57 1009.0
20260503045122 10 53 4.8 9.7 0.00 0.00 0.00 57 1009.2
20260503044124 10 33 6.4 12.9 0.00 0.00 0.00 56 1009.0
20260503043125 11 89 6.4 12.9 0.00 0.00 0.00 56 1009.1
20260503042121 11 321 6.4 11.3 0.00 0.00 0.00 56 1009.1
20260503041121 11 360 4.8 11.3 0.00 0.00 0.00 58 1009.2
20260503040144 11 8 3.2 8.0 0.00 0.00 0.00 59 1009.2